Location: Latina
(41.4670°N, 12.8670°E)
Time: 16:49:28
(UTC+02:00)

ISS - Pass Details

Date: 16 May 2021
Orbit: 417 x 422 km, 51.6° (Epoch: 18 June)

Event Time Altitude Azimuth Distance (km) Brightness Sun altitude
Rises 04:29:16 0° 301° (WNW) 2,374 -0.1 -13.2°
Reaches altitude 10° 04:31:26 10° 294° (WNW) 1,507 -1.2 -12.9°
Maximum altitude 04:34:40 43° 222° (SW) 601 -3.4 -12.4°
Drops below altitude 10° 04:37:53 10° 149° (SSE) 1,499 -1.0 -11.9°
Sets 04:40:02 0° 142° (SE) 2,360 0.1 -11.6°
